| time (UTC) | temp C | wind direction | speed KPH | gust KPH | rain 1hr cm | rain 24hr cm | rain mn cm | humidity % | barometer mb |
| 20260505024905 | 18 | 63 | 6.4 | 8.0 | 0.00 | 0.00 | 0.00 | 75 | 1030.7 |
| 20260505023405 | 18 | 81 | 8.0 | 9.7 | 0.00 | 0.00 | 0.00 | 74 | 1030.7 |
| 20260505022905 | 18 | 70 | 3.2 | 9.7 | 0.00 | 0.00 | 0.00 | 74 | 1030.7 |
| 20260505022406 | 18 | 73 | 9.7 | 11.3 | 0.00 | 0.00 | 0.00 | 74 | 1030.7 |
| 20260505021905 | 18 | 67 | 4.8 | 9.7 | 0.00 | 0.00 | 0.00 | 74 | 1030.7 |
| 20260505021405 | 18 | 86 | 6.4 | 11.3 | 0.00 | 0.00 | 0.00 | 75 | 1030.7 |
| 20260505020905 | 18 | 67 | 8.0 | 11.3 | 0.00 | 0.00 | 0.00 | 74 | 1030.7 |
| 20260505020405 | 18 | 87 | 6.4 | 12.9 | 0.00 | 0.00 | 0.00 | 73 | 1030.7 |
| 20260505014405 | 18 | 95 | 8.0 | 14.5 | 0.00 | 0.00 | 0.00 | 75 | 1030.9 |
| 20260505013405 | 18 | 89 | 6.4 | 14.5 | 0.00 | 0.00 | 0.00 | 74 | 1031.1 |
| 20260505012906 | 18 | 95 | 8.0 | 14.5 | 0.00 | 0.00 | 0.00 | 73 | 1031.2 |
| 20260505010405 | 18 | 69 | 1.6 | 4.8 | 0.00 | 0.00 | 0.00 | 74 | 1031.4 |
| 20260505004904 | 17 | 72 | 8.0 | 9.7 | 0.00 | 0.00 | 0.00 | 75 | 1031.7 |
| 20260505002905 | 17 | 87 | 1.6 | 4.8 | 0.00 | 0.00 | 0.00 | 74 | 1032.0 |
| 20260505000906 | 18 | 59 | 8.0 | 14.5 | 0.00 | 0.00 | 0.00 | 73 | 1032.3 |
| 20260504235905 | 17 | 97 | 1.6 | 4.8 | 0.00 | 0.00 | 0.00 | 73 | 1032.4 |
| 20260504235405 | 17 | 97 | 0.0 | 1.6 | 0.00 | 0.00 | 0.00 | 74 | 1032.4 |
| 20260504234405 | 17 | 99 | 3.2 | 4.8 | 0.00 | 0.00 | 0.00 | 74 | 1032.5 |
| 20260504233405 | 17 | 151 | 3.2 | 4.8 | 0.00 | 0.00 | 0.00 | 72 | 1032.7 |
| 20260504231905 | 17 | 211 | 0.0 | 0.0 | 0.00 | 0.00 | 0.00 | 74 | 1032.9 |
| 20260504230404 | 17 | 212 | 0.0 | 1.6 | 0.00 | 0.00 | 0.00 | 77 | 1033.1 |
| 20260504225905 | 17 | 212 | 0.0 | 3.2 | 0.00 | 0.00 | 0.00 | 77 | 1033.1 |
| 20260504225405 | 16 | 212 | 3.2 | 8.0 | 0.00 | 0.00 | 0.00 | 79 | 1033.1 |
| 20260504224405 | 16 | 223 | 1.6 | 4.8 | 0.00 | 0.00 | 0.00 | 80 | 1033.1 |
| 20260504223905 | 16 | 223 | 3.2 | 4.8 | 0.00 | 0.00 | 0.00 | 80 | 1033.1 |
| 20260504222904 | 15 | 231 | 0.0 | 1.6 | 0.00 | 0.00 | 0.00 | 81 | 1033.2 |
| 20260504222403 | 15 | 231 | 0.0 | 3.2 | 0.00 | 0.00 | 0.00 | 82 | 1033.1 |
| 20260504221405 | 15 | 240 | 3.2 | 4.8 | 0.00 | 0.00 | 0.00 | 82 | 1033.1 |
| 20260504220905 | 15 | 246 | 3.2 | 4.8 | 0.00 | 0.00 | 0.00 | 83 | 1033.1 |
| 20260504220405 | 15 | 246 | 0.0 | 0.0 | 0.00 | 0.00 | 0.00 | 82 | 1033.2 |
| 20260504215905 | 15 | 246 | 0.0 | 0.0 | 0.00 | 0.00 | 0.00 | 83 | 1033.2 |
| 20260504215405 | 14 | 246 | 0.0 | 3.2 | 0.00 | 0.00 | 0.00 | 83 | 1033.2 |
| 20260504214904 | 14 | 245 | 3.2 | 4.8 | 0.00 | 0.00 | 0.00 | 84 | 1033.2 |
| 20260504213905 | 14 | 214 | 1.6 | 3.2 | 0.00 | 0.00 | 0.00 | 85 | 1033.1 |
| 20260504211405 | 13 | 206 | 4.8 | 4.8 | 0.00 | 0.00 | 0.00 | 87 | 1033.1 |
| 20260504210405 | 12 | 224 | 3.2 | 4.8 | 0.00 | 0.00 | 0.00 | 89 | 1033.1 |
| 20260504203404 | 12 | 287 | 1.6 | 4.8 | 0.00 | 0.00 | 0.00 | 90 | 1033.2 |
| 20260504202405 | 12 | 290 | 0.0 | 1.6 | 0.00 | 0.00 | 0.00 | 91 | 1033.3 |
| 20260504201405 | 12 | 290 | 0.0 | 1.6 | 0.00 | 0.00 | 0.00 | 92 | 1033.2 |
| 20260504195404 | 11 | 282 | 3.2 | 4.8 | 0.00 | 0.00 | 0.00 | 91 | 1033.1 |
| 20260504194904 | 11 | 198 | 0.0 | 1.6 | 0.00 | 0.00 | 0.00 | 92 | 1033.0 |
| 20260504194405 | 11 | 193 | 1.6 | 4.8 | 0.00 | 0.00 | 0.00 | 91 | 1032.9 |
| 20260504193905 | 11 | 193 | 4.8 | 4.8 | 0.00 | 0.00 | 0.00 | 91 | 1032.8 |
| 20260504192405 | 11 | 239 | 0.0 | 3.2 | 0.00 | 0.00 | 0.00 | 92 | 1032.8 |
| 20260504191405 | 11 | 243 | 3.2 | 4.8 | 0.00 | 0.00 | 0.00 | 92 | 1032.8 |
| 20260504185406 | 11 | 252 | 1.6 | 1.6 | 0.00 | 0.00 | 0.00 | 92 | 1032.8 |
| 20260504183905 | 11 | 171 | 0.0 | 0.0 | 0.00 | 0.00 | 0.00 | 92 | 1032.8 |
| 20260504181906 | 11 | 171 | 0.0 | 0.0 | 0.00 | 0.00 | 0.00 | 92 | 1032.9 |
| 20260504180906 | 11 | 171 | 0.0 | 3.2 | 0.00 | 0.00 | 0.00 | 92 | 1032.9 |
| 20260504175406 | 11 | 173 | 4.8 | 8.0 | 0.00 | 0.00 | 0.00 | 92 | 1032.8 |
| 20260504174406 | 11 | 174 | 6.4 | 9.7 | 0.00 | 0.00 | 0.00 | 92 | 1032.8 |
| 20260504173905 | 11 | 174 | 4.8 | 8.0 | 0.00 | 0.00 | 0.00 | 92 | 1032.8 |
| 20260504173406 | 11 | 187 | 8.0 | 9.7 | 0.00 | 0.00 | 0.00 | 92 | 1032.9 |
| 20260504172906 | 11 | 224 | 1.6 | 4.8 | 0.00 | 0.00 | 0.00 | 92 | 1033.0 |
| 20260504171406 | 11 | 240 | 3.2 | 4.8 | 0.00 | 0.00 | 0.00 | 92 | 1033.0 |
| 20260504160406 | 10 | 223 | 1.6 | 3.2 | 0.00 | 0.00 | 0.00 | 93 | 1033.0 |
| 20260504140406 | 11 | 270 | 1.6 | 4.8 | 0.00 | 0.00 | 0.00 | 91 | 1034.2 |
| 20260504100406 | 10 | 43 | 0.0 | 3.2 | 0.00 | 0.00 | 0.00 | 90 | 1034.7 |
| 20260504081405 | 13 | 96 | 4.8 | 4.8 | 0.00 | 0.00 | 0.00 | 81 | 1034.4 |
| 20260504080404 | 13 | 40 | 1.6 | 3.2 | 0.00 | 0.00 | 0.00 | 81 | 1034.4 |
| 20260504070405 | 15 | 74 | 3.2 | 4.8 | 0.00 | 0.00 | 0.00 | 77 | 1033.6 |
| 20260504050405 | 16 | 180 | 0.0 | 1.6 | 0.00 | 0.00 | 0.00 | 74 | 1032.9 |
| 20260504045405 | 16 | 180 | 1.6 | 3.2 | 0.00 | 0.00 | 0.00 | 73 | 1032.9 |
| 20260504044906 | 16 | 129 | 1.6 | 3.2 | 0.00 | 0.00 | 0.00 | 73 | 1032.9 |
| 20260504044405 | 17 | 128 | 0.0 | 1.6 | 0.00 | 0.00 | 0.00 | 72 | 1032.9 |
| 20260504043905 | 17 | 127 | 1.6 | 3.2 | 0.00 | 0.00 | 0.00 | 69 | 1033.0 |
| 20260504043405 | 17 | 123 | 0.0 | 1.6 | 0.00 | 0.00 | 0.00 | 69 | 1033.0 |
| 20260504042905 | 17 | 123 | 0.0 | 0.0 | 0.00 | 0.00 | 0.00 | 65 | 1033.0 |
| 20260504042406 | 17 | 123 | 0.0 | 0.0 | 0.00 | 0.00 | 0.00 | 66 | 1033.0 |
| 20260504041405 | 17 | 123 | 0.0 | 0.0 | 0.00 | 0.00 | 0.00 | 64 | 1033.0 |
| 20260504033405 | 17 | 122 | 0.0 | 1.6 | 0.00 | 0.00 | 0.00 | 66 | 1032.9 |
| 20260504032905 | 17 | 122 | 0.0 | 3.2 | 0.00 | 0.00 | 0.00 | 67 | 1032.9 |
| 20260504031906 | 16 | 123 | 1.6 | 4.8 | 0.00 | 0.00 | 0.00 | 71 | 1033.0 |
| 20260504025906 | 17 | 133 | 8.0 | 11.3 | 0.00 | 0.00 | 0.00 | 67 | 1032.9 |